Local,Data,Vel_media,Vel_mediana,Vel_std,Volume
5129,2018-04-19 07:00:00,0.0,0.0,0.0,80
5129,2018-04-19 07:04:00,0.0,0.0,0.0,76
5129,2018-04-19 07:08:00,0.0,0.0,0.0,73
5129,2018-04-19 07:12:00,0.0,0.0,0.0,85
5129,2018-04-19 07:16:00,0.0,0.0,0.0,83
5129,2018-04-19 07:20:00,0.0,0.0,0.0,83
5129,2018-04-19 07:24:00,0.0,0.0,0.0,78
5129,2018-04-19 07:28:00,0.0,0.0,0.0,70
5129,2018-04-19 07:32:00,0.0,0.0,0.0,79
5129,2018-04-19 07:36:00,0.0,0.0,0.0,82
5129,2018-04-19 07:40:00,0.0,0.0,0.0,79
5129,2018-04-19 07:44:00,0.0,0.0,0.0,71
5129,2018-04-19 07:48:00,0.0,0.0,0.0,83
5129,2018-04-19 07:52:00,0.0,0.0,0.0,84
5129,2018-04-19 07:56:00,0.0,0.0,0.0,82
5129,2018-04-19 08:00:00,0.0,0.0,0.0,87
5129,2018-04-19 08:04:00,0.0,0.0,0.0,84
5129,2018-04-19 08:08:00,0.0,0.0,0.0,85
5129,2018-04-19 08:12:00,0.0,0.0,0.0,77
5129,2018-04-19 08:16:00,0.0,0.0,0.0,99
5129,2018-04-19 08:20:00,0.0,0.0,0.0,96
5129,2018-04-19 08:24:00,0.0,0.0,0.0,99
5129,2018-04-19 08:28:00,0.0,0.0,0.0,93
5129,2018-04-19 08:32:00,0.0,0.0,0.0,66
5129,2018-04-19 08:36:00,0.0,0.0,0.0,76
5129,2018-04-19 08:40:00,0.0,0.0,0.0,65
5129,2018-04-19 08:44:00,0.0,0.0,0.0,61
5129,2018-04-19 08:48:00,0.0,0.0,0.0,71
5129,2018-04-19 08:52:00,0.0,0.0,0.0,63
5129,2018-04-19 08:56:00,0.0,0.0,0.0,68
5151,2018-04-19 07:00:00,103.91549295774648,108.0,22.658171959344727,71
5151,2018-04-19 07:04:00,90.92727272727272,97.0,22.22310108539182,110
5151,2018-04-19 07:08:00,94.53623188405797,100.0,25.834643698031968,69
5151,2018-04-19 07:12:00,93.20224719101124,100.0,26.486351448898468,89
5151,2018-04-19 07:16:00,90.78125,95.5,22.6535477063574,96
5151,2018-04-19 07:20:00,90.30681818181819,95.5,25.95369792027096,88
5151,2018-04-19 07:24:00,99.84946236559139,103.0,18.54544725365884,93
5151,2018-04-19 07:28:00,93.90425531914893,101.5,25.163580590789643,94
5151,2018-04-19 07:32:00,88.94827586206897,94.0,24.032168596202087,116
5151,2018-04-19 07:36:00,87.77272727272727,94.0,22.68437569673509,110
5151,2018-04-19 07:40:00,75.90551181102362,78.0,23.848208168977642,127
5151,2018-04-19 07:44:00,92.28,97.0,22.373875895352704,125
5151,2018-04-19 07:48:00,91.86915887850468,97.0,24.97624687130567,107
5151,2018-04-19 07:52:00,92.54310344827586,98.5,22.16397085808184,116
5151,2018-04-19 07:56:00,91.09401709401709,94.0,24.946142990513653,117
5151,2018-04-19 08:00:00,87.19148936170212,92.0,26.60433976876976,94
5151,2018-04-19 08:04:00,94.41379310344827,98.5,24.286360088675732,116
5151,2018-04-19 08:08:00,88.49367088607595,94.0,25.06907044072616,79
5151,2018-04-19 08:12:00,89.76153846153846,94.0,21.56720301005217,130
5151,2018-04-19 08:16:00,94.73109243697479,100.0,20.115639197447628,119
5151,2018-04-19 08:20:00,86.77586206896552,92.0,23.345080929356424,116
5151,2018-04-19 08:24:00,77.51492537313433,92.0,28.758976388715922,134
5151,2018-04-19 08:28:00,85.64166666666667,89.0,22.620283837661248,120
5151,2018-04-19 08:32:00,90.92592592592592,89.0,62.902273127617086,135
5151,2018-04-19 08:36:00,63.78832116788321,67.0,17.210816818011622,137
5151,2018-04-19 08:40:00,64.05555555555556,64.0,21.568979783218513,126
5151,2018-04-19 08:44:00,87.24409448818898,92.0,21.471545044411116,127
5151,2018-04-19 08:48:00,71.92857142857143,73.5,18.88922595404209,126
5151,2018-04-19 08:52:00,74.5891472868217,78.0,21.71319169994244,129
5151,2018-04-19 08:56:00,90.65454545454546,94.0,24.92316131583189,110
5194,2018-04-19 07:00:00,90.0909090909091,89.0,12.55750409479961,11
5194,2018-04-19 07:04:00,67.35,64.0,17.923698679652436,40
5194,2018-04-19 07:08:00,68.95652173913044,72.0,24.309516020891085,23
5194,2018-04-19 07:12:00,91.625,94.0,18.10294635319529,16
5194,2018-04-19 07:16:00,91.45,89.0,11.19433597381894,20
5194,2018-04-19 07:20:00,75.76,81.0,25.508625992005133,25
5194,2018-04-19 07:24:00,73.52380952380952,83.0,26.652615345626117,21
5194,2018-04-19 07:28:00,73.6842105263158,78.0,21.886202227732802,19
5194,2018-04-19 07:32:00,89.33333333333333,97.0,22.644681697815983,30
5194,2018-04-19 07:36:00,99.66666666666667,97.0,18.587630295441105,9
5194,2018-04-19 07:40:00,78.9,70.5,26.37961733093025,20
5194,2018-04-19 07:44:00,89.28571428571429,93.0,21.686071896166773,28
5194,2018-04-19 07:48:00,80.05263157894737,72.0,20.58984022443682,19
5194,2018-04-19 07:52:00,55.61904761904762,53.0,20.621532897619883,21
5194,2018-04-19 07:56:00,84.675,84.5,25.341146737050366,40
5194,2018-04-19 08:00:00,86.31818181818181,96.0,26.53189700043249,22
5194,2018-04-19 08:04:00,67.41176470588235,69.0,25.529538831345477,17
5194,2018-04-19 08:08:00,105.4090909090909,106.0,7.12914267809779,22
5194,2018-04-19 08:12:00,59.55172413793103,47.0,34.63955852458753,29
5194,2018-04-19 08:16:00,55.28,61.0,23.34794780417899,25
5194,2018-04-19 08:20:00,31.894736842105264,31.0,14.25519295961263,19
5194,2018-04-19 08:24:00,51.0,42.0,26.221810260417442,25
5194,2018-04-19 08:28:00,49.06818181818182,44.0,23.569193262306218,44
5194,2018-04-19 08:32:00,45.61290322580645,33.0,23.788901360865516,31
5194,2018-04-19 08:36:00,64.91304347826087,67.0,28.272879783023456,23
5194,2018-04-19 08:40:00,70.22222222222223,78.0,27.345838290220176,27
5194,2018-04-19 08:44:00,70.64,83.0,26.96584259144644,25
5194,2018-04-19 08:48:00,65.20930232558139,67.0,35.09141676327762,43
5194,2018-04-19 08:52:00,83.0952380952381,86.0,21.194114187445447,21
5194,2018-04-19 08:56:00,65.32352941176471,66.5,19.455809428011694,34
5195,2018-04-19 07:00:00,80.49704142011835,83.0,19.52352800998342,169
5195,2018-04-19 07:04:00,68.040625,69.0,19.253666497302316,320
5195,2018-04-19 07:08:00,73.99596774193549,75.0,22.901390086315608,248
5195,2018-04-19 07:12:00,77.71764705882353,78.0,25.879379634931297,170
5195,2018-04-19 07:16:00,68.79651162790698,72.0,22.814773851361156,172
5195,2018-04-19 07:20:00,56.34939759036145,58.0,21.147639017122913,166
5195,2018-04-19 07:24:00,48.292857142857144,44.0,24.588848273229573,140
5195,2018-04-19 07:28:00,63.49802371541502,67.0,20.71186005341991,253
5195,2018-04-19 07:32:00,74.30065359477125,72.0,20.183448816512758,306
5195,2018-04-19 07:36:00,78.70454545454545,78.0,14.83639443365583,88
5195,2018-04-19 07:40:00,54.30201342281879,56.0,19.000606212941683,149
5195,2018-04-19 07:44:00,49.97682119205298,50.0,20.132685919998444,302
5195,2018-04-19 07:48:00,43.02962962962963,44.0,13.481851117828539,135
5195,2018-04-19 07:52:00,44.583333333333336,44.0,16.282356707464352,132
5195,2018-04-19 07:56:00,62.07096774193548,64.0,23.179455098595053,155
5195,2018-04-19 08:00:00,48.732824427480914,47.0,18.947224041645832,131
5195,2018-04-19 08:04:00,42.23376623376623,42.0,18.5974645300007,77
5195,2018-04-19 08:08:00,65.59401709401709,67.0,19.575366803981883,234
5195,2018-04-19 08:12:00,50.36601307189542,50.0,18.396492669866703,153
5195,2018-04-19 08:16:00,46.4014598540146,47.0,21.749394803620262,137
5195,2018-04-19 08:20:00,43.76158940397351,44.0,14.630884506992516,151
5195,2018-04-19 08:24:00,45.82312925170068,44.0,15.415567954058435,147
5195,2018-04-19 08:28:00,42.151898734177216,39.0,19.593700149380155,158
5195,2018-04-19 08:32:00,40.26190476190476,39.0,18.90822416057317,84
5195,2018-04-19 08:36:00,35.306930693069305,33.0,16.20539575219157,101
5195,2018-04-19 08:40:00,39.46052631578947,39.0,16.3678256429328,152
5195,2018-04-19 08:44:00,42.244680851063826,43.0,19.814020326777502,94
5195,2018-04-19 08:48:00,47.21989528795812,47.0,22.009419562147976,191
5195,2018-04-19 08:52:00,58.97005988023952,58.0,15.579344198618992,167
5195,2018-04-19 08:56:00,52.86486486486486,47.0,28.08167113480091,148
5196,2018-04-19 07:00:00,107.23076923076923,111.0,20.368087155130063,13
5196,2018-04-19 07:04:00,113.6,111.0,11.880890351970912,10
5196,2018-04-19 07:08:00,97.44444444444444,108.0,25.015550719058293,9
5196,2018-04-19 07:12:00,99.16666666666667,98.5,15.443935752105144,12
5196,2018-04-19 07:16:00,106.05882352941177,114.0,17.02377230608457,17
5196,2018-04-19 07:20:00,112.38888888888889,114.0,8.991099447845393,18
5196,2018-04-19 07:24:00,103.21428571428571,100.0,9.617120722389371,14
5196,2018-04-19 07:28:00,69.6842105263158,69.0,27.045337720162795,19
5196,2018-04-19 07:32:00,110.86666666666666,111.0,11.166702203212818,15
5196,2018-04-19 07:36:00,99.16666666666667,106.0,17.171282455788518,18
5196,2018-04-19 07:40:00,100.05882352941177,100.0,17.108004662420797,17
5196,2018-04-19 07:44:00,115.10526315789474,108.0,42.18464009149684,19
5196,2018-04-19 07:48:00,106.08695652173913,106.0,18.632603496116108,23
5196,2018-04-19 07:52:00,98.18181818181819,95.5,16.12639470125316,22
5196,2018-04-19 07:56:00,98.5909090909091,98.5,14.022631676479254,22
5196,2018-04-19 08:00:00,107.82352941176471,114.0,12.556050802888059,17
5196,2018-04-19 08:04:00,99.63157894736842,100.0,16.97452511630227,19
5196,2018-04-19 08:08:00,92.18181818181819,93.0,15.214768400773552,22
5196,2018-04-19 08:12:00,122.19047619047619,103.0,94.86496668824537,21
5196,2018-04-19 08:16:00,95.38888888888889,97.0,17.320979760662528,18
5196,2018-04-19 08:20:00,94.0,89.0,24.793262842008943,35
5196,2018-04-19 08:24:00,102.0,97.0,14.74976459322506,28
5196,2018-04-19 08:28:00,106.75,106.0,11.584193903206945,32
5196,2018-04-19 08:32:00,105.67857142857143,106.0,18.39294061726576,28
5196,2018-04-19 08:36:00,119.96296296296296,108.0,100.79433801309762,27
5196,2018-04-19 08:40:00,99.46153846153847,97.0,24.751938541020607,26
5196,2018-04-19 08:44:00,102.4,106.0,12.938721973819108,20
5196,2018-04-19 08:48:00,96.46153846153847,97.0,17.56318840770475,39
5196,2018-04-19 08:52:00,105.125,106.0,10.051629540042565,40
5196,2018-04-19 08:56:00,97.3913043478261,94.0,22.46763152633499,23
5197,2018-04-19 07:00:00,75.0673076923077,75.0,19.69858104361635,208
5197,2018-04-19 07:04:00,78.84020618556701,72.0,23.30269908000414,194
5197,2018-04-19 07:08:00,82.39603960396039,83.0,23.2242278742832,202
5197,2018-04-19 07:12:00,89.65151515151516,89.0,20.562021388496493,198
5197,2018-04-19 07:16:00,93.51243781094527,92.0,61.1192366978463,201
5197,2018-04-19 07:20:00,88.0,89.0,20.43830936736006,197
5197,2018-04-19 07:24:00,72.50943396226415,72.0,20.45257850371425,212
5197,2018-04-19 07:28:00,64.50261780104712,64.0,19.057219752366745,191
5197,2018-04-19 07:32:00,66.02870813397129,64.0,19.588535176022965,209
5197,2018-04-19 07:36:00,55.58454106280193,56.0,13.388567527696683,207
5197,2018-04-19 07:40:00,57.68,56.0,12.730195970496142,200
5197,2018-04-19 07:44:00,64.00980392156863,61.0,48.39899748545244,204
5197,2018-04-19 07:48:00,60.01570680628272,56.0,19.503704490170595,191
5197,2018-04-19 07:52:00,64.46788990825688,61.0,19.502129770183497,218
5197,2018-04-19 07:56:00,58.86138613861386,56.0,18.17522763438186,202
5197,2018-04-19 08:00:00,62.65079365079365,61.0,19.483073993574738,189
5197,2018-04-19 08:04:00,59.70157068062827,61.0,19.38610320616235,191
5197,2018-04-19 08:08:00,52.47089947089947,50.0,34.44723763336659,189
5197,2018-04-19 08:12:00,63.152709359605915,64.0,15.461268441850162,203
5197,2018-04-19 08:16:00,57.023696682464454,56.0,12.362169927528264,211
5197,2018-04-19 08:20:00,52.924731182795696,53.0,14.470649929661283,186
5197,2018-04-19 08:24:00,55.455555555555556,56.0,17.891142661192802,180
5197,2018-04-19 08:28:00,54.41968911917098,53.0,15.8237369791773,193
5197,2018-04-19 08:32:00,59.04455445544554,56.0,17.105554509402328,202
5197,2018-04-19 08:36:00,54.640449438202246,54.5,15.177106749587994,178
5197,2018-04-19 08:40:00,65.6029411764706,64.0,20.603557758117624,204
5197,2018-04-19 08:44:00,59.235,56.0,21.434715068091084,200
5197,2018-04-19 08:48:00,59.76923076923077,58.0,18.232549259443058,195
5197,2018-04-19 08:52:00,49.644067796610166,50.0,14.778011974026427,177
5197,2018-04-19 08:56:00,52.61025641025641,50.0,16.14470317644658,195
5198,2018-04-19 07:00:00,112.47058823529412,114.0,18.06971792481424,17
5198,2018-04-19 07:04:00,117.73333333333333,119.0,9.215411522216984,15
5198,2018-04-19 07:08:00,108.35714285714286,109.5,9.295219142177277,14
5198,2018-04-19 07:12:00,108.45454545454545,106.0,12.069495733986871,11
5198,2018-04-19 07:16:00,108.95652173913044,108.0,10.142073756340533,23
5198,2018-04-19 07:20:00,111.0,108.5,10.804482500576473,20
5198,2018-04-19 07:24:00,115.75,107.0,27.99715894677367,12
5198,2018-04-19 07:28:00,111.61904761904762,117.0,20.222453338989784,21
5198,2018-04-19 07:32:00,111.14285714285714,111.0,17.193852722079814,21
5198,2018-04-19 07:36:00,109.9047619047619,111.0,12.991938892654792,21
5198,2018-04-19 07:40:00,114.75,119.0,14.406017261315958,16
5198,2018-04-19 07:44:00,106.61904761904762,108.0,14.065831615927268,21
5198,2018-04-19 07:48:00,117.11111111111111,119.5,18.129887215796913,18
5198,2018-04-19 07:52:00,108.6470588235294,108.0,14.45657798577601,17
5198,2018-04-19 07:56:00,109.0,106.0,15.078958850000223,17
5198,2018-04-19 08:00:00,115.86363636363636,114.0,19.613638244721585,22
5198,2018-04-19 08:04:00,111.84615384615384,107.0,19.113748575708126,26
5198,2018-04-19 08:08:00,110.03846153846153,111.0,11.553287910307677,26
5198,2018-04-19 08:12:00,108.52631578947368,111.0,11.786849645320986,19
5198,2018-04-19 08:16:00,115.9090909090909,114.0,10.446731504839166,22
5198,2018-04-19 08:20:00,118.70588235294117,122.0,13.298330279974783,17
5198,2018-04-19 08:24:00,115.0,117.0,18.796276226955168,21
5198,2018-04-19 08:28:00,106.96296296296296,106.0,10.642734905455752,27
5198,2018-04-19 08:32:00,112.85714285714286,111.0,13.08161195833952,21
5198,2018-04-19 08:36:00,108.88888888888889,104.5,14.26039025267998,36
5198,2018-04-19 08:40:00,113.15151515151516,114.0,16.348014428595775,33
5198,2018-04-19 08:44:00,113.62962962962963,114.0,15.107685634873569,27
5198,2018-04-19 08:48:00,114.52173913043478,119.0,12.522233191834115,23
5198,2018-04-19 08:52:00,106.5,108.5,15.106076538502538,32
5198,2018-04-19 08:56:00,110.07142857142857,107.0,9.683619507833154,28
5199,2018-04-19 07:00:00,99.68131868131869,100.0,13.184520574592725,182
5199,2018-04-19 07:04:00,98.94475138121547,97.0,15.472098096934966,181
5199,2018-04-19 07:08:00,83.04419889502762,89.0,22.622708160022626,181
5199,2018-04-19 07:12:00,94.69543147208122,94.0,16.224465949565065,197
5199,2018-04-19 07:16:00,101.18478260869566,100.0,12.401682723675533,184
5199,2018-04-19 07:20:00,86.17460317460318,86.0,19.468364695342043,189
5199,2018-04-19 07:24:00,93.1311475409836,94.0,17.452738765997605,183
5199,2018-04-19 07:28:00,100.74093264248705,100.0,13.960331940023767,193
5199,2018-04-19 07:32:00,95.45945945945945,94.0,12.182477158042534,185
5199,2018-04-19 07:36:00,95.33333333333333,94.0,13.83081517903336,192
5199,2018-04-19 07:40:00,97.95287958115183,100.0,14.645382947003144,191
5199,2018-04-19 07:44:00,92.35164835164835,93.0,20.256026250917795,182
5199,2018-04-19 07:48:00,97.95604395604396,97.0,14.33491436662981,182
5199,2018-04-19 07:52:00,91.13471502590673,89.0,14.821946251203826,193
5199,2018-04-19 07:56:00,90.88648648648649,92.0,16.405959981488998,185
5199,2018-04-19 08:00:00,94.62244897959184,94.0,17.50780942593389,196
5199,2018-04-19 08:04:00,85.21142857142857,86.0,27.564050502989627,175
5199,2018-04-19 08:08:00,100.33888888888889,100.0,12.8468259623154,180
5199,2018-04-19 08:12:00,98.82702702702703,97.0,14.105284406158335,185
5199,2018-04-19 08:16:00,100.02325581395348,100.0,13.324099209591692,172
5199,2018-04-19 08:20:00,97.62105263157895,97.0,14.247382715082077,190
5199,2018-04-19 08:24:00,97.44910179640719,97.0,35.51796739995849,167
5199,2018-04-19 08:28:00,92.4040404040404,92.0,14.162522354080552,198
5199,2018-04-19 08:32:00,92.54705882352941,95.5,20.273007023712633,170
5199,2018-04-19 08:36:00,95.92934782608695,94.0,37.866033738005285,184
5199,2018-04-19 08:40:00,86.84444444444445,83.0,16.080392384600152,180
5199,2018-04-19 08:44:00,100.30434782608695,103.0,14.832204756306487,184
5199,2018-04-19 08:48:00,98.8465909090909,100.0,17.096174668962874,176
5199,2018-04-19 08:52:00,99.15217391304348,100.0,18.806715916243547,184
5199,2018-04-19 08:56:00,95.51933701657458,94.0,15.876114540130544,181
5200,2018-04-19 07:00:00,114.2,119.5,17.61186468769783,10
5200,2018-04-19 07:04:00,110.14285714285714,110.0,17.70639668358538,14
5200,2018-04-19 07:08:00,116.77777777777777,118.0,8.41955396021006,18
5200,2018-04-19 07:12:00,109.52380952380952,108.0,16.488235344084114,21
5200,2018-04-19 07:16:00,113.0,115.5,8.159131606453508,8
5200,2018-04-19 07:20:00,103.38095238095238,106.0,16.73761091218275,21
5200,2018-04-19 07:24:00,114.85714285714286,109.5,17.019704159306933,14
5200,2018-04-19 07:28:00,112.3125,109.5,14.225417392821905,16
5200,2018-04-19 07:32:00,97.6923076923077,100.0,13.028489492705534,26
5200,2018-04-19 07:36:00,117.76923076923077,117.0,10.33726145354631,13
5200,2018-04-19 07:40:00,100.03703703703704,103.0,19.614518722857945,27
5200,2018-04-19 07:44:00,108.89473684210526,111.0,17.24945969151274,19
5200,2018-04-19 07:48:00,108.95,107.0,11.962551215311363,20
5200,2018-04-19 07:52:00,115.625,115.5,14.296269909781829,16
5200,2018-04-19 07:56:00,117.72222222222223,119.0,18.83615283423797,18
5200,2018-04-19 08:00:00,114.6923076923077,111.0,14.244207099640045,13
5200,2018-04-19 08:04:00,119.16666666666667,117.0,18.918556094635825,18
5200,2018-04-19 08:08:00,118.36842105263158,114.0,14.314757444740529,19
5200,2018-04-19 08:12:00,111.92857142857143,111.0,14.628557994372139,28
5200,2018-04-19 08:16:00,113.625,114.0,14.318769986037328,24
5200,2018-04-19 08:20:00,109.92857142857143,109.5,10.113901585985756,28
5200,2018-04-19 08:24:00,113.6,111.0,16.38004524880628,35
5200,2018-04-19 08:28:00,115.60714285714286,119.0,10.685189770110796,28
5200,2018-04-19 08:32:00,96.29545454545455,97.0,16.288931247443223,44
5200,2018-04-19 08:36:00,106.77777777777777,106.0,25.504650154181284,27
5200,2018-04-19 08:40:00,103.58064516129032,106.0,14.463227379688082,31
5200,2018-04-19 08:44:00,118.0,122.0,10.173494974687902,13
5200,2018-04-19 08:48:00,102.81818181818181,100.0,14.913195804082674,33
5200,2018-04-19 08:52:00,105.53333333333333,107.0,15.339229251269062,30
5200,2018-04-19 08:56:00,100.8,100.0,17.396138681490243,40
5201,2018-04-19 07:00:00,102.85820895522389,103.0,13.354705732029146,134
5201,2018-04-19 07:04:00,68.79577464788733,72.0,23.2615528324273,142
5201,2018-04-19 07:08:00,69.43650793650794,73.5,20.199602384897,126
5201,2018-04-19 07:12:00,71.15625,75.0,21.999440758819013,128
5201,2018-04-19 07:16:00,54.411764705882355,56.0,20.31589999537637,119
5201,2018-04-19 07:20:00,58.16101694915254,56.0,16.72398877858918,118
5201,2018-04-19 07:24:00,64.3801652892562,72.0,21.533406681381962,121
5201,2018-04-19 07:28:00,57.46280991735537,61.0,18.79895445776796,121
5201,2018-04-19 07:32:00,58.36521739130435,58.0,18.822965832075575,115
5201,2018-04-19 07:36:00,57.74418604651163,58.0,20.560991232552876,129
5201,2018-04-19 07:40:00,51.041666666666664,53.0,18.143867558268518,120
5201,2018-04-19 07:44:00,52.612612612612615,56.0,19.42639777171595,111
5201,2018-04-19 07:48:00,63.41880341880342,67.0,24.771103617277912,117
5201,2018-04-19 07:52:00,70.42056074766356,78.0,25.653363229128747,107
5201,2018-04-19 07:56:00,98.12,100.0,17.983314376376672,100
5201,2018-04-19 08:00:00,104.2566371681416,106.0,14.868338100679114,113
5201,2018-04-19 08:04:00,94.29752066115702,100.0,20.737504120192156,121
5201,2018-04-19 08:08:00,99.82926829268293,100.0,12.521920004845772,123
5201,2018-04-19 08:12:00,68.50806451612904,69.0,21.472423595980835,124
5201,2018-04-19 08:16:00,55.266129032258064,61.0,19.499889043239776,124
5201,2018-04-19 08:20:00,50.944954128440365,56.0,20.714923437153605,109
5201,2018-04-19 08:24:00,59.68376068376068,58.0,23.61970596500448,117
5201,2018-04-19 08:28:00,63.51282051282051,67.0,21.598058415537142,117
5201,2018-04-19 08:32:00,51.243478260869566,50.0,19.054212272865943,115
5201,2018-04-19 08:36:00,48.352380952380955,50.0,18.445335533147748,105
5201,2018-04-19 08:40:00,35.13333333333333,36.0,15.179969060382083,90
5201,2018-04-19 08:44:00,56.575471698113205,56.0,23.630064834043434,106
5201,2018-04-19 08:48:00,54.43,61.0,20.30636811097902,100
5201,2018-04-19 08:52:00,48.67307692307692,47.0,18.44879679171481,104
5201,2018-04-19 08:56:00,63.33613445378151,67.0,20.478710446243703,119
5202,2018-04-19 07:00:00,119.72727272727273,119.0,7.11464558626653,11
5202,2018-04-19 07:04:00,108.23529411764706,108.0,8.204643591929404,17
5202,2018-04-19 07:08:00,111.2,111.0,10.857518790484054,15
5202,2018-04-19 07:12:00,113.71428571428571,114.0,9.413516118554517,21
5202,2018-04-19 07:16:00,118.9047619047619,114.0,20.164088776596785,21
5202,2018-04-19 07:20:00,115.5,114.0,7.982936347439628,12
5202,2018-04-19 07:24:00,122.23529411764706,117.0,30.68698708688405,17
5202,2018-04-19 07:28:00,109.4,108.0,9.772410142846034,25
5202,2018-04-19 07:32:00,114.76470588235294,114.0,11.621797471587099,17
5202,2018-04-19 07:36:00,104.04,100.0,9.528378665859158,25
5202,2018-04-19 07:40:00,111.5,108.0,9.616323840768173,20
5202,2018-04-19 07:44:00,115.55555555555556,115.5,12.701191339315711,18
5202,2018-04-19 07:48:00,110.29411764705883,111.0,12.770888310344516,17
5202,2018-04-19 07:52:00,114.8125,114.0,16.797693294021062,16
5202,2018-04-19 07:56:00,111.75,111.0,11.520576557209553,20
5202,2018-04-19 08:00:00,112.16129032258064,111.0,20.531434069402863,31
5202,2018-04-19 08:04:00,100.67857142857143,100.0,12.978767765023484,28
5202,2018-04-19 08:08:00,107.85,111.0,11.485803594460698,20
5202,2018-04-19 08:12:00,116.04761904761905,117.0,11.306972143222916,21
5202,2018-04-19 08:16:00,120.55,108.0,30.739097339758665,20
5202,2018-04-19 08:20:00,106.33333333333333,104.5,13.852222131160561,24
5202,2018-04-19 08:24:00,104.11764705882354,106.0,11.227036377025406,34
5202,2018-04-19 08:28:00,109.85185185185185,111.0,11.544907980789642,27
5202,2018-04-19 08:32:00,107.8,111.0,10.835128056465228,35
5202,2018-04-19 08:36:00,107.42857142857143,106.0,10.088682401832362,35
5202,2018-04-19 08:40:00,106.8,106.0,13.527314415438033,35
5202,2018-04-19 08:44:00,98.0,97.0,16.398268988111262,32
5202,2018-04-19 08:48:00,111.95833333333333,109.5,16.752622550479693,24
5202,2018-04-19 08:52:00,107.65384615384616,107.0,9.834398030148288,26
5202,2018-04-19 08:56:00,111.07407407407408,108.0,10.520770394158866,27
5203,2018-04-19 07:00:00,105.90196078431373,106.0,12.85525650773391,102
5203,2018-04-19 07:04:00,103.37614678899082,103.0,11.38044862653562,109
5203,2018-04-19 07:08:00,103.13913043478261,106.0,12.736111773099056,115
5203,2018-04-19 07:12:00,102.7560975609756,103.0,15.77575513945092,123
5203,2018-04-19 07:16:00,97.06086956521739,94.0,14.000806340514528,115
5203,2018-04-19 07:20:00,92.12931034482759,89.0,15.726759345785132,116
5203,2018-04-19 07:24:00,91.14960629921259,89.0,15.030698079743475,127
5203,2018-04-19 07:28:00,98.01754385964912,97.0,25.649779607512976,114
5203,2018-04-19 07:32:00,100.45217391304348,100.0,14.91216592588306,115
5203,2018-04-19 07:36:00,98.03305785123968,97.0,20.420550875811976,121
5203,2018-04-19 07:40:00,99.21551724137932,100.0,12.220301024174457,116
5203,2018-04-19 07:44:00,107.352,106.0,25.912774281572826,125
5203,2018-04-19 07:48:00,102.8,103.0,15.53727831841406,115
5203,2018-04-19 07:52:00,97.37931034482759,97.0,13.558026772175308,116
5203,2018-04-19 07:56:00,83.85436893203884,78.0,18.954231648683795,103
5203,2018-04-19 08:00:00,90.1259842519685,89.0,33.590907718679304,127
5203,2018-04-19 08:04:00,89.34615384615384,86.0,17.628690295269685,130
5203,2018-04-19 08:08:00,89.85585585585585,86.0,16.4950939520854,111
5203,2018-04-19 08:12:00,95.0672268907563,94.0,14.584488563246715,119
5203,2018-04-19 08:16:00,94.5229357798165,94.0,20.86801394757556,109
5203,2018-04-19 08:20:00,93.88785046728972,94.0,15.335448577455074,107
5203,2018-04-19 08:24:00,93.0603448275862,92.0,17.182543615467747,116
5203,2018-04-19 08:28:00,91.98230088495575,89.0,12.917998449619597,113
5203,2018-04-19 08:32:00,100.01666666666667,97.0,32.310984508181654,120